OBJECT D, 60015

Orbit data source: Space-Track

You're viewing an Uncataloged Satellite

Recently launched and/or uncataloged satellites may have evolving metadata. Metadata may include but not limited to: Owner, Maufacturer, Bus, Motor, and Mission.

OBJECT D, 60015 is a satellite owned by Xinghe Dongli (CN) in SSO that was launched on Thu, 06 Jun 2024 UTC via a GUSHENXING 1 launch vehicle from the Jiuquan Satellite Launch Center, China (JSC). Unknown objects in Earth's orbit typically refer to objects detected orbiting the Earth but have not yet been identified or cataloged. These objects could be anything from previously untracked satellites, spent rocket stages, debris from satellite collisions, or even natural meteoroids temporarily captured by Earth's gravity.

Loading next visibility...
Identifier
60015, 2024-110D
Orbit
SSO
Country
Flag of CNCN / PRC
Related business
Flag of CNGalactic Energy Co. (CN)
Manufacturer
Xinghe Dongli
Mission
Commercial Technology
Bus & Motor
LSP, EDGE
Mass
20 kg wet, 20 kg dry
Launch date (UTC)
2024-06-06 (2 years ago)
Launch vehicle
GUSHENXING 1
Launch site
Jiuquan Satellite Launch Center, China (JSC)
Object type
Unknown
Shape & HBR
Box, 0.2 m
Radar Cross Section
0.240 m², Medium (>0.1 m² and < 1m²)

Expand to show TLE details & history
Last TLE update: 10 hours ago

TLE from 10 hours ago
0 OBJECT D
1 60015U 24110D   25342.59431691  .00015097  00000-0  68679-3 0  9995
2 60015  97.5791  73.2758 0010640 191.7537 168.3451 15.20770462 83258
Epoch: 2025-12-08T14:15Z
TLE epoch observation values (Epoch: 2025-12-08T14:15:48.981Z)
Latitude
-0.00003°
Longitude
141.73061°
Altitude
513.775 km
Speed
7.603 km/s
True Right ascension
04h 53m 06s
True Declination
0° 00' 00"
Sunlit
Object was in full shadow at epoch
Visualization orbit readout
Latitude
Unknown
Longitude
Unknown
Altitude
Unknown
Speed
Unknown
Apparent Right ascension
Unknown
Apparent Declination
Unknown
Sunlit
N/A
Visualization observer readout
Local Sidereal Time
22:19:22
Azimuth
Unknown
Elevation
Unknown
Doppler factor
Unknown
Orbital elements
Apogee altitude
507.806 km
Perigee altitude
493.169 km
Semi-major axis
6,878.625 km
Eccentricity
0.00106
Inclination
97.5791°
RAAN
73.2758°
Arg. of periapsis
191.7537°
True anomaly
168.3697°
Mean anomaly
168.3451°
Eccentric anomaly
168.3574°
Mean motion
3.80444 °/min
Orbital period
94.63 mins
BSTAR
0.00068679
Loading maneuver chart data...
Computing Atmospheric mass density...
Loading historical data...
Loading historical data...
Loading historical data...
Loading historical data...
Loading historical data...
Loading historical data...
Loading historical data...
Other satellites on launch #110 in the year 2024 (2024-06-06 UTC)

Documentation

Showing up to 5 results
|